Regional Weather Roundup
Issued by NWS Glasgow, MT

Home | Current Version | Previous Version | Text Only | Print | Product List | Glossary On
Versions: 1 2 3 4 5 6 7 8 9 10 11 12 13 14 15 16 17 18 19 20 21 22 23 24 25 26 27 28 29 30 31 32 33 34 35 36 37 38 39 40 41 42 43 44 45 46 47 48 49 50
000
ASUS45 KGGW 271715
RWRGGW
HOURLY WEATHER ROUNDUP FOR NORTHEAST MONTANA
NATIONAL WEATHER SERVICE GLASGOW MONTANA
1000 AM MST TUE JAN 27 2015

NOTE: "FAIR" INDICATES FEW OR NO CLOUDS BELOW 12,000 FEET WITH NO
SIGNIFICANT WEATHER AND/OR OBSTRUCTIONS TO VISISBILITY.

NORTHEAST MONTANA


CITY           SKY/WX    TMP DP  RH WIND       PRES   REMARKS
GLASGOW        PTSUNNY   37  31  78 SE3       29.86R
PLENTYWOOD       N/A     38  34  85 E3          N/A
WOLF POINT     PTSUNNY   37  33  85 W7        29.86R
JORDAN           N/A     40  34  79 W3        29.88R
WINNETT          N/A     50  32  50 E2          N/A
SIDNEY         MOSUNNY   39  34  81 S6        29.88R
GLENDIVE       MOSUNNY   41  34  75 S7        29.90R
MALTA            N/A     35  33  92 W1          N/A
SCOBEY           N/A     41  31  68 CALM      29.82R

FORT PECK REPORTS


CITY           SKY/WX    TMP DP  RH WIND       PRES   REMARKS
FORT PECK        N/A     37  32  82 SE8         N/A
THE PINES        N/A     41  30  65 SW5         N/A

SOUTHEAST MONTANA


CITY           SKY/WX    TMP DP  RH WIND       PRES   REMARKS
BILLINGS       PTSUNNY   49  28  44 SW18      29.93F
MILES CITY     MOSUNNY   37  30  75 SE6       29.92S
BAKER          SUNNY     47  34  60 VRB3      29.92S
LIVINGSTON     SUNNY     57  21  24 SW23G36   29.99R

CENTRAL MONTANA


CITY           SKY/WX    TMP DP  RH WIND       PRES   REMARKS
HAVRE          CLOUDY    46  33  60 SW14      29.85S
LEWISTOWN      NOT AVBL
GREAT FALLS    CLOUDY    56  29  35 SW17      29.90S
CUT BANK       CLOUDY    50  24  36 W15       29.86F
HELENA         MOSUNNY   35  30  82 CALM      30.03S
BUTTE          PTSUNNY   29  26  89 CALM      30.05S
BOZEMAN        MOSUNNY   35  28  75 CALM      30.04S

WESTERN MONTANA


CITY           SKY/WX    TMP DP  RH WIND       PRES   REMARKS
MISSOULA       PTSUNNY   24  22  91 CALM      30.08R FOG
KALISPELL      NOT AVBL

NORTH DAKOTA


CITY           SKY/WX    TMP DP  RH WIND       PRES   REMARKS
WILLISTON      MOSUNNY   37  32  82 S8        29.84S
DICKINSON      MOSUNNY   50  34  54 W13       29.85R
MINOT          MOSUNNY   38  32  79 SE5       29.82F
BISMARCK       SUNNY     39  32  76 S9        29.90F

SOUTHERN SASKATCHEWAN


CITY           SKY/WX    TMP DP  RH WIND       PRES   REMARKS
REGINA         CLOUDY    27  25  93 E7        29.78S
MOOSE JAW      CLOUDY    32  30  93 CALM      29.79R
ESTEVAN        CLOUDY    36  34  93 S8        29.79S
SWIFT CURRENT  PTSUNNY   37  32  81 W10       29.76S



USA.gov is the U.S. government's official web portal to all federal, state and local government web resources and services.